Aeroporto :
LOGIN :

Iscrizione | Disclaimer

   EN    FR    IT 

 










Sommario :    VFR   VFR Marginale   IFR   IFR Intensivo   IFR Molto Intensivo
Visibilità : 
Base nubi : 
>= 8 km
>= 3000ft
5 / 8 km
1000 / 3000 ft
1500m / 5 km
500 / 1000 ft
800 / 1500m
200 / 500 ft
< 800m
< 200 ft
Simboli :   Temporali  Nebbia  Neve Forte  Precipitazioni Forti  Vento > 20 kt
SIGMETs :   Varie  Temporali  Ghiacco  Turbolenza  Onda orograficha  Ceneri Vulcaniche







- Altitudine del aeroporto : 49 ft
- Codice IATA : SEN
- Carte del aeroporto


EGMC - Southend

ULTIMO METAR :
  • 222250Z 22006KT CAVOK 12/05 Q1018

METARs OBSOLETI :
  • 222220Z 22008KT CAVOK 12/05 Q1018
  • 222150Z 22008KT CAVOK 14/06 Q1018
  • 222120Z 20007KT CAVOK 15/05 Q1018
  • 222050Z 21008KT CAVOK 15/05 Q1018
  • 222020Z 22010KT CAVOK 15/04 Q1018
  • 221950Z 22009KT CAVOK 16/04 Q1018

TAF TAF EGMC
Valido dal 22 a 21 ore il 23 a 06 ore UTC


222005Z 2221/2306 21007KT 9999 FEW045
PROB30 2300/2306 8000
Nessun NOTAM noto per questo aeroporto.



MetMap, La meteo Aeronautica in un colpo d'occhio ! - Copyright ORBIFLY Dicembre 2007 - Disclaimer

ORBIFLY MET'MAP TEAM :

Programmazione e sviluppo : Alexandra Zaïnal
Concezione e sviluppo : Baudouin d'Aumeries
Co-Programmazione e sviluppo : Marc-Olivier Méhu
Supporto tecnico e logistico : Manuel Goepfert
Aiuto per la traduzione : Arnaldo La Scala

Contatto : metmap@orbifly.com




FONTI E CREDITI :

   NOAA